Regional Weather Roundup
Issued by NWS Sterling, VA

Home | Current Version | Previous Version | Graphics & Text | Print | Product List | Glossary On
Versions: 1 2 3 4 5 6 7 8 9 10 11 12 13 14 15 16 17 18 19 20 21 22 23 24 25 26 27 28 29 30 31 32 33 34 35 36 37 38 39 40 41 42 43 44 45 46 47 48 49 50
000
ASUS41 KLWX 230810
RWRLWX

REGIONAL WEATHER ROUNDUP
NATIONAL WEATHER SERVICE BALTIMORE MD/WASHINGTON DC
400 AM EDT WED JUL 23 2014

Note: "FAIR" indicates few or no clouds below 12,000 feet
with no significant weather and/or obstructions to visibility.
 TC=TEMPERATURE CELSIUS

 * =Non NWS site. Station does not report precipitation (e.g. rain,
    snow, etc.), thunder, or fog.

DCZ001-MDZ009-015-VAZ040>042-051-053>054-230900-
WASHINGTON METRO
  /KDAA//-FT BELVOIR

CITY           SKY/WX    TMP DP  RH WIND       PRES   REMARKS
WASHINGTON NAT PTCLDY    76  69  79 S8        30.03F
DULLES         PTCLDY    71  68  90 S6        30.03F
ANDREWS AFB    CLEAR     71  70  96 S7        30.03F
QUANTICO       CLEAR     75  69  81 SW7       30.03F
COLLEGE PARK*  CLEAR     73  70  88 CALM      30.02F
LEESBURG*      MOCLDY    72  72 100 S6        30.03F
MANASSAS*      PTCLDY    72  72 100 S5        30.03S
GAITHERSBURG*  CLEAR     72  66  83 S3        30.07F

$$

MDZ006>007-011-014-230900-
BALTIMORE METRO

CITY           SKY/WX    TMP DP  RH WIND       PRES   REMARKS
BWI AIRPORT    CLEAR     71  67  87 CALM      30.02F
MD SCIENCE CTR   N/A     74  68  81 MISG      30.03F
MARTIN STATE   CLEAR     75  72  88 S6        30.03F
ANNAPOLIS      CLEAR     74  69  85 SW6       30.02F
FORT MEADE*    CLEAR     64  63  94 CALM      30.05F

$$

MDZ012-015-019>023-230900-
MARYLAND EASTERN SHORE

CITY           SKY/WX    TMP DP  RH WIND       PRES   REMARKS
OCEAN CITY     CLEAR     69  68  96 CALM      30.04F FOG
SALISBURY      NOT AVBL
BAY BRIDGE AP*   N/A     75  70  83 S6        30.02F
CAMBRIDGE*     PTCLDY    72  68  88 CALM      30.03F
EASTON*        CLEAR     73  73 100 CALM      30.07F

$$

MDZ017>025-230900-
SOUTHERN MARYLAND

CITY           SKY/WX    TMP DP  RH WIND       PRES   REMARKS
PATUXENT RIVER CLEAR     72  71  97 S5        30.03F
ST INIGOES     NOT AVBL
LEONARDTOWN*   PTCLDY    72  70  94 CALM      30.05F

$$

MDZ003>005-230900-
NORTH CENTRAL MARYLAND

CITY           SKY/WX    TMP DP  RH WIND       PRES   REMARKS
FREDERICK*     CLEAR     70  70 100 CALM      30.05S
HAGERSTOWN APT CLEAR     74  69  85 S5        30.01F
WESTMINSTER*   PTCLDY    72  70  94 S6        30.04F

$$

MDZ501>502-230900-
WESTERN MARYLAND

CITY           SKY/WX    TMP DP  RH WIND       PRES   REMARKS
OAKLAND*       CLEAR     66 N/A N/A SW7       30.13F
CUMBERLAND*    CLEAR     70  68  94 CALM      30.06F

$$

VAZ025>031-230900-
SHENANDOAH VALLEY

CITY           SKY/WX    TMP DP  RH WIND       PRES   REMARKS
WINCHESTER*    MOCLDY    73  70  88 S6        30.02F
STAUNTON*      MOCLDY    70  67  89 S3        30.09F

$$

WVZ021-048>050-054>055-230900-
EASTERN WEST VIRGINIA PANHANDLE

CITY           SKY/WX    TMP DP  RH WIND       PRES   REMARKS
MARTINSBURG    MOCLDY    70  66  87 CALM      30.01F FOG
PETERSBURG*    MOCLDY    69  65  88 CALM      30.05F FOG

$$

VAZ036>039-050-230900-
CENTRAL FOOTHILLS

CITY           SKY/WX    TMP DP  RH WIND       PRES   REMARKS
CHARLOTTESVILL CLEAR     70  69  97 CALM      30.05S
ORANGE*        CLEAR     70  68  94 CALM      30.06S

$$

VAZ055>057-230900-
NORTH AND CENTRAL PIEDMONT

CITY           SKY/WX    TMP DP  RH WIND       PRES   REMARKS
FREDERICKSBRG* CLEAR     72  70  95 CALM      30.03F
STAFFORD*      CLEAR     70  70 100 SE3       30.07F

$$

NCZ024-NYZ072-PAZ021-071-VAZ022-071-230900-
OTHER REGIONAL OBSERVATIONS

CITY           SKY/WX    TMP DP  RH WIND       PRES   REMARKS
NEW YORK CITY  CLEAR     74  62  66 W7G18     30.03F
PHILADELPHIA   PTCLDY    73  64  73 S8        30.02F
PITTSBURGH     CLEAR     75  69  81 SW6       29.98F
ROANOKE        CLEAR     69  67  93 CALM      30.11S
RICHMOND       PTCLDY    72  68  87 CALM      30.05S
RALEIGH        FOG       73  70  88 CALM      30.06F VSB 1/4

$$

ANZ530>537-230900-
MARINE OBSERVATIONS

STATION/POSITION TIME  TEMP    WIND        PRES
                       AIR SEA DIR/SP/G
                 (UTC) (F)     (DEG/KT/KT) (MB)
THOMAS PT LIGHT  0800   75 79  200/ 13/ 14 1017.1F
BALT KEY BRIDGE  0800   74     180/  3/  5 1016.4F
COVE POINT       0800   74     200/  6/  8 1016.8F
LEWISETTA        0800   74 81  200/  3/  5 1016.8F
SOLOMONS ISLAND  0800      81                N/A
PINEY POINT      0800          210/  5/  5   N/A

$$



USA.gov is the U.S. government's official web portal to all federal, state and local government web resources and services.